Other Public Products
Issued by NWS Grand Forks, ND

Home | Current Version | Previous Version | Graphics & Text | Print | Product List | Glossary On
Versions: 1 2 3 4 5 6 7 8 9 10 11 12 13 14 15 16 17 18 19 20 21 22 23 24 25 26 27 28 29 30 31 32 33 34 35 36 37 38 39 40 41 42 43 44 45 46 47 48 49 50
231
FPUS83 KFGF 060810
OPUFGF
PRAIRIE TO PINES WEATHER ROUNDUP
NATIONAL WEATHER SERVICE EASTERN NORTH DAKOTA/GRAND FORKS ND
200 AM CST TUE DEC 06 2016

 **SATELLITE DATA USED TO AUGMENT SKY COVER AT AUTOMATED STATIONS**
 *****  WEATHER ACROSS EASTERN NORTH DAKOTA  *****

CITY           SKY/WX    TMP DP  RH WIND       PRES   REMARKS
GRAND FORKS    CLOUDY    30  28  92 N18       29.33F FOG     WCI  18
GRAND FORKS AF LGT SNOW  28  28 100 N20       29.35F FOG     WCI  15
GRAND CITY NWS   N/A     28 N/A N/A N9          N/A  WCI  20
BUXTON         NOT AVBL
DEVILS LAKE    LGT SNOW  26  24  92 N24G32    29.46S FOG     WCI  11
FARGO          CLOUDY    25  20  81 SW18      29.45R WCI  11
WAHPETON ARPT  CLOUDY    21  14  73 SW29G35   29.57S WCI   3
$$

 *****  WEATHER ACROSS CENTRAL AND WESTERN NORTH DAKOTA  *****

CITY           SKY/WX    TMP DP  RH WIND       PRES   REMARKS
JAMESTOWN      LGT SNOW  24  22  91 W23G30    29.46S VSB 3/4 WCI   9
BISMARCK       SNOW      14  12  92 NW31G44   29.70R VSB 1/2 WCI  -7
MINOT          SNOW      17  14  88 NW32G40   29.70R VSB 1/2 WCI  -3
MINOT AFB      BLWGSNOW  16  14  93 NW31G39   29.70R VSB 1/4 WCI  -5
GARRISON         N/A     13  10  88 NW36G48   29.70R WCI -10
WILLISTON      LGT SNOW   9   3  77 NW22G35   29.95S VSB 3/4 WCI -11
DICKINSON      MIX PCPN   5   0  79 NW32G39   29.82S WCI -20
HETTINGER      CLOUDY     6   1  80 NW32      29.85S WCI -18
$$

 *****  OTHER OBSERVATIONS NORTHEAST NORTH DAKOTA  *****

CITY           SKY/WX    TMP DP  RH WIND       PRES   REMARKS
WALHALLA       LGT SNOW  28  28 100 N24G35    29.47F VSB 3/4 WCI  14
LANGDON        LGT SNOW  27  27 100 N29G35    29.45F WCI  11
CAVALIER       HVY SNOW  28  28 100 N21G32    29.43F VSB 1/4 WCI  15
GRAFTON        FOG       28  30 100 N21       29.39F VSB 1/2 WCI  15
CANDO          LGT SNOW  27  27 100 N23G32    29.53F WCI  12
FORT TOTTEN      N/A     26  26 100 N9        29.95S WCI  17
ROLLA          LGT SNOW  25  25 100 N26       29.56S WCI   9
RUGBY          MIX PCPN  27  27 100 N17       29.57S VSB 1   WCI  14
 ***** THE ABOVE OBSERVATIONS ARE NON NWS ARE NOT QUALITY
        CONTROLLED AND MAY MIS-REPORT RAIN FOR SNOW...
$$

 *****  OTHER OBSERVATIONS SOUTHEAST NORTH DAKOTA *****

CITY           SKY/WX    TMP DP  RH WIND       PRES   REMARKS
COOPERSTOWN    MIX PCPN  27  27 100 NW18      29.40S WCI  13
VALLEY CITY    LGT SNOW  25  25 100 W23       29.44F WCI  10
OAKES          NOT AVBL
GWINNER        PTSUNNY   21  16  79 W32G41    29.53S WCI   2
SHEYENNE NWR     N/A     19  13  77 W20       29.95S WCI   3
BUFFALO        NOT AVBL
WYNDMERE       NOT AVBL
 ***** THE ABOVE OBSERVATIONS ARE NON NWS ARE NOT QUALITY
       CONTROLLED AND MAY MIS-REPORT RAIN FOR SNOW...
$$

  *****  WEATHER ACROSS NORTHERN MINNESOTA  *****

CITY           SKY/WX    TMP DP  RH WIND       PRES   REMARKS
FLAG ISLAND    LGT SNOW  30  28  93 NE14G20   29.41F WCI  20
WARROAD        LGT SNOW  32  28  86 E20G26    29.38F VSB 3/4 WCI  20
ROSEAU         LGT SNOW  32  27  80 NE16G22   29.36F VSB 1   WCI  21
HALLOCK        LGT SNOW  30  30 100 N18       29.37F WCI  18
THF RVR FALLS  FLURRIES  32  31  96 S12       29.31F WCI  23
HALSTAD          N/A     28  27  94 SW20        N/A  WCI  15
FOSSTON        CLOUDY    27  27 100 S25G32    29.37R WCI  11
BAUDETTE       LGT SNOW  33  31  92 E18G25    29.37F FOG     WCI  22
WASKISH        DRIZZLE   34  34 100 SE7       29.37F
CROOKSTON      LGT SNOW  32  32 100 S7        29.31F
$$
  *****  WEATHER ACROSS CENTRAL AND WEST MINNESOTA  *****

CITY           SKY/WX    TMP DP  RH WIND       PRES   REMARKS
BEMIDJI        CLOUDY    31  28  90 S20G26    29.40R WCI  18
PARK RAPIDS    CLOUDY    26  20  77 SW21G32   29.48R WCI  12
WADENA         CLOUDY    21  19  93 SW20G32   29.54R WCI   6
DETROIT LAKES  CLOUDY    25  21  86 SW20G28   29.48R WCI  11
MOORHEAD       CLOUDY    25  19  80 SW26      29.47S WCI   9
FERGUS FALLS   CLOUDY    19  16  86 SW25G33   29.62R WCI   2
ELBOW LAKE     CLOUDY    19  14  80 SW26G33   29.63R WCI   1
MORRIS MN      MOCLDY    21  16  79 W17G24    29.66R WCI   7
STAPLES        CLOUDY    23  19  86 SW17G24   29.56R WCI   9
WHEATON        PTCLDY    19  14  79 W21G31    29.66R WCI   3
$$
  *****  WEATHER ELSEWHERE ACROSS MINNESOTA  *****

CITY           SKY/WX    TMP DP  RH WIND       PRES   REMARKS
DULUTH         CLOUDY    35  33  92 S16G24    29.56S
INTRNTL FALLS  CLOUDY    33  31  92 E14       29.45F FOG     WCI  23
ELY            CLOUDY    34  32  93 SE14      29.53F WCI  24
CLOQUET        CLOUDY    36  32  87 S10       29.56R
BRAINERD       CLOUDY    30  24  78 SW14G24   29.55R WCI  19
HIBBING        CLOUDY    33  32  96 S12G20    29.50F WCI  24
ALEXANDRIA     CLOUDY    21  16  81 SW20G35   29.61R WCI   6
SAINT CLOUD    CLOUDY    29  24  82 W16G26    29.65R WCI  17
MINNEAPOLIS    CLOUDY    33  25  72 W16G25    29.71R WCI  23
$$

  *****  WEATHER ACROSS SOUTH DAKOTA  *****

CITY           SKY/WX    TMP DP  RH WIND       PRES   REMARKS
SIOUX FALLS    PTCLDY    18  11  74 W22G35    29.83R WCI   1
BROOKINGS      FLURRIES  15   9  76 W22G31    29.76R WCI  -3
WATERTOWN      FLURRIES  15   9  76 W29G38    29.69R WCI  -5
HURON          CLEAR     15   7  70 W25G33    29.84F WCI  -4
SISSETON         N/A     18  10  71 W33G46    29.58F WCI  -2
ABERDEEN       CLOUDY    17   8  67 W22G35    29.70F WCI   0
MITCHELL       CLEAR     17   9  70 NW22G30   29.89F WCI   0
PIERRE         CLOUDY    15   7  70 NW30G44   29.88S WCI  -5
MOBRIDGE       MIX PCPN  13   6  74 NW31G45   29.74F WCI  -9
RAPID CITY     CLEAR     17   1  49 NW14      29.90R WCI   3
$$

  *****  SOME WEATHER IN NEARBY STATES *****

CITY           SKY/WX    TMP DP  RH WIND       PRES   REMARKS
GLASGOW MT     CLOUDY     4  -3  73 NW21G26   30.08S WCI -17
GREAT FALLS MT CLOUDY     4   0  83 SW5       30.10S WCI  -5
CHEYENNE WY    CLEAR     11  -7  44 W18G25    29.88S WCI  -7
SCOTTSBLUFF NE CLEAR     13   3  64 NW10      29.98S WCI   0
OMAHA NE       CLOUDY    31  22  69 NW22      29.92R WCI  18
DES MOINES IA  LGT RAIN  37  33  85 N15       29.82R
DAVENPORT IA   CLOUDY    33  33 100 SE6       29.84S FOG
CHICAGO IL     MOCLDY    34  32  92 E5        29.87F FOG
EAU CLAIRE WI  LGT SNOW  33  31  92 S14       29.73R FOG     WCI  23
LA CROSSE WI   CLOUDY    36  31  82 S14       29.79S
$$

  *****  SOME NATIONAL WEATHER *****

CITY           SKY/WX    TMP DP  RH WIND       PRES   REMARKS
LA GUARDIA NY  PTCLDY    43  29  57 NW8       30.11F
RALEIGH NC     LGT RAIN  47  44  90 E14       30.01F
ATLANTA GA     LGT RAIN  53  53 100 E14       29.79F VSB 1/2
NEW ORLEANS LA CLOUDY    59  58  96 W23G33    29.74R
OKLAHOMA CITY  CLOUDY    45  43  93 N5        29.77R
ALBUQUERQUE NM CLOUDY    35  16  45 SE6       29.91S
SALT LAKE CITY MOCLDY    25  10  53 CALM      29.97F
LOS ANGELES CA CLOUDY    58  53  84 NE5       29.98R
BOISE ID       CLOUDY    25  11  55 SE16      29.96F WCI  12
SEATTLE WA     MOCLDY    34  33  96 E6        30.01S
$$

*** WEATHER ACROSS MANITOBA...SASKATCHEWAN AND ONTARIO ***
                ***ONTARIO***

CITY           SKY/WX    TMP DP  RH WIND       PRES   REMARKS
GERALDTON      MOCLDY    27  25  93 E3        29.87S
THUNDER BAY    CLOUDY    37  36  93 E14       29.73S
SIOUX LOOKOUT  LGT SNOW  28  27  93 E8G18     29.62F VSB 3/4 WCI  20
TORONTO        PTCLDY    32  28  86 W5        30.07F
BIG TROUT LK   LGT SNOW  25  25 100 S5        29.90  WCI  19
PICKLE LAKE    NOT AVBL
DRYDEN         LGT SNOW  28  28 100 E14G20    29.56  WCI  17
KENORA         SNOW      28  28 100 E15       29.49F VSB 1/2 WCI  17
$$
                *** MANITOBA***

CITY           SKY/WX    TMP DP  RH WIND       PRES   REMARKS
BRANDON        FLURRIES  25  21  86 N21G28    29.68S WCI  10
DAUPHIN        FRZ RAIN  23  23 100 N21G28    29.81F FOG     WCI   8
ISLAND LAKE    NOT AVBL
PILOT MOUND      N/A     25  25 100 N23G30      N/A  WCI  10
THE PAS        CLOUDY    16  10  79 W13       29.95R WCI   2
THOMPSON       FLURRIES  21  19  93 E5        29.91S WCI  15
WINNIPEG       FLURRIES  30  27  86 N24G33    29.55F WCI  16
LYNN LAKE      LGT SNOW  18  16  93 N3        29.91R
CHURCHILL      FLURRIES  21  21 100 NW6       29.97R WCI  14
GILLAM         FLURRIES  19  16  86 N2        29.95R
$$
                ***SASKATCHEWAN***

CITY           SKY/WX    TMP DP  RH WIND       PRES   REMARKS
ESTEVAN        SNOW       9   7  92 NW35G41   29.87R VSB 1/4 WCI -15
KINDERSLEY     NOT AVBL
LLOYDMINSTER   LGT SNOW  -2  -9  71 NW17G23   30.15S WCI -24
PRINCE ALBERT  FLURRIES   7   0  72 NW14      30.06S WCI -10
REGINA         FLURRIES   7   1  78 NW21      29.99S WCI -13
YORKTON        LGT SNOW  12   7  79 NW21      29.89S WCC1F1C2F2C3F3C4F4C5F5C6F6C7F7C8F8C9F9CaFaCbFbCcFcCdFdCe!



USA.gov is the U.S. government's official web portal to all federal, state and local government web resources and services.